This demonstration page uses our WeatherBlox Daily Observations layout. Learn more.

38.88101, -77.10428

Hourly Observations for November 17, 2016

Temp ( °F °C ) Dew Point ( °F °C ) Humidity (%) Winds ( mph kmh ) Pressure ( in mb ) Visibility ( mi km ) Precip ( " mm )
12:52 am 00:52 Clear 49 9.4 46 7.8 90 90 Calm 30 1016 10 16.09344 0 0
1:52 am 01:52 Clear 48 8.9 44 6.7 86 86 Calm 30.03 1017 10 16.09344 0 0
2:52 am 02:52 Clear 46 7.8 43 6.1 89 89 Calm 30.03 1017 10 16.09344 0 0
3:52 am 03:52 Clear 48 8.9 42 5.6 80 80 Calm 30.06 1018 10 16.09344 0 0
4:52 am 04:52 Clear 45 7.2 41 5 86 86 N 7 11 30.06 1018 10 16.09344 0 0
5:52 am 05:52 Clear 49 9.4 41 5 74 74 NW 10 17 30.06 1018 10 16.09344 0 0
6:52 am 06:52 Clear 44 6.7 40 4.4 85 85 N 6 9 30.09 1019 10 16.09344 0 0
7:52 am 07:52 Sunny 50 10 42 5.6 74 74 NNW 9 15 30.12 1020 10 16.09344 0 0
8:52 am 08:52 Sunny 52 11.1 43 6.1 72 72 N 12 19 30.12 1020 10 16.09344 0 0
9:52 am 09:52 Sunny 55 12.8 44 6.7 67 67 NNW 13 20 30.15 1021 10 16.09344 0 0
10:52 am 10:52 Mostly Sunny 58 14.4 41 5 53 53 NW 10 17 30.12 1020 10 16.09344 0 0
11:52 am 11:52 Mostly Sunny 60 15.6 40 4.4 47 47 NNW 14 22 30.12 1020 10 16.09344 0 0
12:52 pm 12:52 Sunny 61 16.1 39 3.9 44 44 NNW 12 19 30.09 1019 10 16.09344 0 0
1:52 pm 13:52 Sunny 63 17.2 38 3.3 40 40 NNW 10 17 30.06 1018 10 16.09344 0 0
2:52 pm 14:52 Sunny 62 16.7 37 2.8 40 40 NW 13 20 30.06 1018 10 16.09344 0 0
3:52 pm 15:52 Sunny 61 16.1 37 2.8 41 41 NNW 13 20 30.09 1019 10 16.09344 0 0
4:52 pm 16:52 Sunny 59 15 37 2.8 44 44 NW 8 13 30.09 1019 10 16.09344 0 0
5:52 pm 17:52 Clear 59 15 38 3.3 46 46 WNW 7 11 30.09 1019 10 16.09344 0 0
6:52 pm 18:52 Clear 56 13.3 40 4.4 55 55 N 5 7 30.12 1020 10 16.09344 0 0
7:52 pm 19:52 Clear 54 12.2 39 3.9 57 57 N 6 9 30.12 1020 10 16.09344 0 0
8:52 pm 20:52 Clear 51 10.6 44 6.7 77 77 E 3 6 30.12 1020 10 16.09344 0 0
9:52 pm 21:52 Clear 50 10 42 5.6 74 74 Calm 30.15 1021 10 16.09344 0 0
10:52 pm 22:52 Clear 50 10 44 6.7 80 80 Calm 30.15 1021 10 16.09344 0 0
11:52 pm 23:52 Clear 47 8.3 41 5 80 80 Calm 30.15 1021 10 16.09344 0 0

Powered by AerisWeather